Location: Lombard
(41.8800°N, 88.0080°W)
Time: 13:55:55
(UTC-05:00)

NANOSAT C BR1 - Visible Passes

Search period start: 16 May 2022 00:00
Search period end: 26 May 2022 00:00
Orbit: 584 x 602 km, 98.0° (Epoch: 16 May)

Date Brightness Start Highest point End Pass type
(mag) Time Alt. Az. Time Alt. Az. Time Alt. Az.
16 May ? 02:16:45 10° NE 02:20:23 29° E 02:20:34 29° ESE visible
16 May ? 03:52:31 10° NNW 03:55:48 23° WNW 03:57:11 19° W visible
17 May ? 02:25:34 10° NNE 02:29:25 36° E 02:29:43 36° ESE visible
17 May ? 04:01:46 10° NNW 04:04:42 19° WNW 04:06:19 15° W visible
18 May ? 02:34:25 10° NNE 02:38:25 46° E 02:38:51 44° ESE visible
18 May ? 04:11:07 10° NNW 04:13:35 16° WNW 04:15:27 12° W visible
19 May ? 02:43:18 10° NNE 02:47:24 59° E 02:47:58 53° SE visible
19 May ? 04:20:38 10° NW 04:22:27 13° WNW 04:24:16 10° W visible
20 May ? 02:52:13 10° NNE 02:56:22 76° ESE 02:57:05 58° SSE visible
20 May ? 04:30:48 10° NW 04:31:18 10° WNW 04:31:48 10° WNW visible
21 May ? 03:01:10 10° NNE 03:05:20 85° W 03:06:12 55° SSW visible
22 May ? 03:10:08 10° N 03:14:16 67° WNW 03:15:18 47° SW visible
23 May ? 01:45:29 10° ENE 01:47:19 13° E 01:47:47 12° E visible
23 May ? 03:19:08 10° N 03:23:10 53° WNW 03:24:23 38° SW visible
24 May ? 01:53:46 10° NE 01:56:20 16° E 01:56:52 15° ESE visible
24 May ? 03:28:10 10° N 03:32:05 42° WNW 03:33:28 31° WSW visible
25 May ? 02:02:17 10° NE 02:05:20 20° E 02:05:56 19° ESE visible
25 May ? 03:37:13 10° N 03:40:58 34° WNW 03:42:33 25° WSW visible
